Presure
295 349 327 333 420 413 404 274 279 279 293 275 255 243 239 233 240 238 218 89 162 95 222 219 211 197 190 199 201 203 204 198 192 191 191 194 197 196 207 217 216 164 208 193
322 332 399 398 396 384 381 394 403 338 279 301 288 272 253 235 231 237 233 231 224 217 221 214 214 217 207 199 192 191 193 189 193 195 199 200 202 198 199 206 205 216 193 185
390 391 374 377 375 363 379 387 431 401 197 205 287 272 278 265 250 239 233 230 227 222 224 224 219 213 223 221 213 209 207 202 198 197 193 201 203 204 209 216 213 216 212 212
352 369 365 390 378 381 368 377 395 396 350 346 261 256 278 286 276 252 250 244 237 234 233 198 226 223 221 223 225 227 219 214 212 208 206 209 210 212 221 221 215 225 203 179
360 380 371 360 350 346 348 346 337 366 316 309 310 324 269 276 282 280 287 253 248 247 244 247 243 239 245 239 218 225 228 228 231 230 222 222 225 224 215 223 220 226 204 192
306 299 305 297 309 295 332 339 350 336 351 330 347 357 153 342 342 293 253 145 288 279 268 261 256 258 253 252 253 254 254 257 252 241 236 224 222 218 223 220 213 209 207 195
318 333 326 321 322 319 330 330 332 335 326 317 102 132 309 314 204 306 307 308 89 283 299 281 301 283 305 297 289 285 280 257 256 259 246 252 244 228 239 235 223 222 226 219
321 298 294 293 290 293 299 295 302 300 287 289 79 289 289 294 291 263 290 291 294 157 136 307 310 314 309 314 332 342 342 251 300 300 307 297 258 103 132 243 220 221 228 227
296 288 285 279 271 279 286 289 286 163 266 268 274 278 283 151 184 274 277 131 281 286 292 295 300 302 302 305 310 312 322 333 343 355 291 277 282 267 253 245 250 227 220 221
287 286 282 283 277 270 268 275 274 275 268 265 267 182 89 270 274 274 269 266 257 191 187 289 290 294 295 295 302 304 305 309 323 329 342 313 262 193 109 136 118 210 171 230
283 279 277 275 273 269 268 275 268 269 271 272 272 203 265 199 97 264 267 272 276 131 290 262 294 282 200 288 288 291 292 297 304 315 335 303 290 300 254 270 274 115 135 230
279 277 274 269 267 270 270 270 267 266 266 272 267 260 251 253 172 256 109 105 184 110 253 138 272 253 261 284 292 273 267 283 289 285 311 390 314 314 276 298 263 275 255 126
279 283 280 274 269 264 261 251 259 258 262 263 261 262 263 244 262 262 265 244 243 250 241 271 205 257 269 265 278 277 274 287 286 297 317 290 270 278 278 280 263 297 297 271
300 298 294 290 282 275 273 274 274 272 275 276 272 267 281 182 269 265 264 262 266 273 129 194 245 292 275 250 276 279 273 288 299 287 331 158 273 238 286 224 254 247 256 284
408 409 410 445 375 321 311 303 294 293 292 291 290 262 283 211 280 280 275 281 283 284 287 294 267 306 308 322 322 283 278 290 302 310 277 264 178 252 251 276 257 262 245 247
420 405 391 385 389 387 387 348 355 356 360 361 358 366 350 341 321 300 299 143 134 144 335 331 339 148 378 373 154 325 283 286 276 302 278 271 263 262 255 245 242 236 250 245
397 411 407 391 374 381 385 383 377 396 408 405 393 375 359 198 189 337 332 230 186 355 362 334 352 343 303 346 202 342 311 292 273 283 304 262 258 257 255 254 255 252 271 278
399 371 380 386 373 376 387 396 385 373 342 342 333 158 362 354 125 223 345 338 332 339 334 337 303 309 224 338 330 341 298 274 290 266 322 282 262 257 252 258 253 264 265 224
372 415 370 351 341 331 328 334 317 324 320 320 328 329 334 329 343 329 123 305 309 135 256 295 289 275 292 285 352 306 296 264 260 258 323 285 279 266 250 253 254 266 254 243
339 329 325 322 316 324 306 311 311 308 309 322 317 309 299 338 333 331 303 299 285 282 300 290 292 293 299 328 339 316 341 317 286 283 262 307 280 271 260 252 254 259 254 252
314 310 314 325 311 317 307 314 330 315 311 313 288 299 308 315 323 300 297 308 308 318 303 292 315 268 314 320 285 317 314 281 320 296 274 316 295 260 276 252 249 255 270 254
324 343 317 320 313 314 313 306 299 304 307 322 314 308 307 318 323 301 316 326 312 304 304 314 313 296 317 184 231 301 301 254 291 272 277 295 292 324 274 262 266 263 269 263
304 307 308 307 307 311 309 304 304 306 305 309 310 306 311 308 316 328 313 304 305 320 305 270 263 259 260 284 270 299 278 281 304 315 280 280 296 275 282 250 256 233 254 254
290 289 287 287 289 292 293 296 299 301 303 305 309 314 322 322 323 328 304 311 321 310 272 264 258 277 299 316 288 269 286 286 288 297 308 282 314 318 284 276 288 275 237 238
290 292 290 303 323 326 321 320 295 280 283 289 288 280 319 281 297 295 283 292 283 266 266 280 276 286 284 279 281 280 274 273 268 272 275 268 274 300 272 260 253 248 247 238
283 298 299 294 295 278 279 289 294 306 346 367 363 302 298 301 290 284 283 269 271 269 266 279 271 268 268 262 260 260 261 260 258 258 261 268 272 272 259 249 258 247 239 239
293 295 291 271 281 285 282 281 281 283 278 283 282 279 281 282 272 279 281 269 273 277 287 315 279 278 269 260 258 260 250 258 260 261 262 259 256 256 255 248 243 242 245 238
Wind_Speed
78 79 77 73 48 49 53 88 87 85 101 103 93 85 81 86 89 92 83 23 55 31 82 87 88 77 69 79 80 77 77 74 71 65 66 67 66 58 63 72 64 44 47 46
77 70 50 47 44 45 49 48 47 64 86 88 94 96 97 90 86 94 93 90 84 82 84 81 82 94 93 85 76 73 73 66 72 78 82 78 73 69 64 63 49 51 45 49
50 43 44 40 40 43 42 35 36 44 44 44 82 82 96 101 99 94 88 87 89 89 90 88 88 85 91 99 97 93 87 81 77 78 76 78 75 76 77 78 64 61 44 51
46 39 36 32 32 34 35 30 23 28 41 46 74 73 83 88 94 97 100 97 94 97 100 80 95 97 96 97 98 99 97 93 92 91 92 91 83 83 86 76 69 63 49 49
40 34 30 29 31 37 37 32 35 27 47 55 59 55 72 75 80 84 89 98 102 101 97 100 101 101 103 103 84 93 92 91 94 94 95 96 93 85 75 75 68 63 54 50
39 40 38 39 42 46 31 27 26 33 33 38 33 33 15 44 46 67 81 40 87 93 101 100 102 102 101 99 99 98 101 98 98 92 93 90 84 80 80 78 68 62 59 57
36 36 34 34 35 34 29 27 27 29 33 33 17 18 43 43 33 53 58 62 11 68 75 87 79 89 81 86 88 90 92 94 98 90 89 97 82 83 86 83 77 76 75 68
36 36 37 37 37 34 32 33 31 33 35 37 6 44 47 49 52 47 57 58 63 30 24 61 61 60 64 63 62 62 67 55 81 88 88 86 75 13 30 88 68 71 74 74
40 40 41 41 41 40 38 37 37 15 43 40 45 48 50 19 25 55 54 17 60 59 58 58 57 57 57 59 55 54 55 59 63 62 85 80 62 80 91 88 76 74 70 71
44 46 46 45 45 47 46 42 42 42 42 46 48 30 4 51 53 54 57 63 54 35 40 56 54 53 55 55 52 51 50 54 55 59 67 75 60 47 20 28 20 59 48 76
48 48 49 50 51 52 50 52 51 49 47 49 53 38 54 33 2 56 56 63 62 36 54 49 50 51 30 51 49 49 51 53 50 55 55 70 69 73 64 74 78 26 19 71
50 52 53 54 55 58 58 56 55 54 51 52 53 54 55 56 33 63 15 8 34 5 49 23 52 52 51 52 50 52 52 52 55 57 47 53 63 67 68 68 68 71 78 28
54 58 61 61 61 59 56 49 56 55 53 52 50 52 58 50 61 64 62 59 59 57 50 56 53 51 55 51 51 53 54 55 54 48 39 54 64 66 63 63 58 53 64 71
70 71 71 71 69 66 64 63 67 68 66 65 65 61 65 36 66 64 60 62 65 65 4 27 55 60 58 53 58 55 59 57 52 41 49 51 57 51 49 49 61 60 48 53
50 52 48 42 69 88 87 84 80 78 78 75 74 65 71 51 69 71 67 69 68 66 69 70 63 68 65 63 61 58 60 54 47 41 62 56 28 63 61 58 56 61 54 52
35 45 45 43 40 47 56 68 62 62 63 62 63 58 63 70 84 80 78 31 9 15 74 75 63 23 38 38 37 53 60 51 49 46 63 63 65 62 61 61 61 53 56 52
15 22 32 38 37 33 35 34 31 27 28 25 31 43 48 37 28 44 45 25 25 35 38 37 38 36 31 41 46 47 52 50 48 54 58 69 71 70 69 68 66 60 53 46
29 33 32 36 30 30 31 29 32 36 34 32 26 29 34 44 17 28 35 29 22 15 22 28 32 23 24 35 44 40 55 43 45 51 52 81 78 75 69 70 63 55 50 50
60 48 66 71 67 59 51 47 42 43 39 37 26 26 26 27 34 35 13 37 35 15 30 34 33 41 35 36 35 49 47 43 46 51 52 77 82 77 67 64 63 51 54 52
74 70 66 61 53 56 44 43 42 35 30 27 33 29 27 31 36 42 50 44 42 38 37 42 38 33 29 35 36 38 25 39 45 49 51 66 72 70 69 69 64 64 55 51
48 46 51 55 46 51 40 37 35 35 32 32 30 25 30 30 33 50 44 42 39 42 44 40 28 21 21 21 19 25 28 39 34 44 46 45 68 64 79 70 57 54 59 52
36 39 36 36 34 32 30 30 28 26 24 30 33 31 27 26 35 39 38 40 45 41 35 28 25 17 23 25 20 21 25 27 36 43 46 47 48 59 83 71 67 57 55 50
54 53 48 44 43 38 39 39 36 34 31 29 29 26 26 28 28 27 43 37 31 37 28 25 30 30 31 14 25 16 27 29 21 20 38 42 47 65 73 58 55 48 52 55
52 51 50 47 45 43 41 38 36 33 31 29 27 26 28 33 33 39 28 27 27 18 22 23 29 12 15 15 23 23 11 7 4 7 14 31 24 42 65 67 59 55 60 60
48 47 47 41 33 32 33 30 33 34 33 31 30 29 28 28 26 25 24 20 20 25 22 15 19 19 19 18 16 12 11 9 12 11 17 28 29 38 48 48 52 55 57 60
47 48 49 50 51 40 42 47 49 44 29 20 18 26 25 24 24 22 19 22 19 19 20 18 26 24 22 21 18 16 17 21 27 30 32 33 35 41 50 54 53 57 59 62
47 50 53 46 50 52 52 52 49 47 42 43 41 38 38 36 28 29 30 27 25 24 19 18 27 26 26 26 32 32 35 37 38 39 39 42 47 50 53 57 58 61 65 64
Wind_Direction
278 279 275 273 259 252 249 250 248 243 240 240 242 242 242 242 240 240 245 259 245 258 242 240 240 248 244 248 249 249 252 253 253 256 259 261 265 269 275 277 279 243 269 267
279 276 265 260 252 246 243 242 241 238 243 239 240 239 239 241 244 243 244 245 247 247 247 244 242 239 244 246 246 245 247 245 251 257 259 260 261 263 262 267 263 275 259 254
271 263 257 252 243 240 235 234 240 228 239 237 237 237 239 239 241 244 245 245 246 247 247 247 248 246 244 242 245 247 249 249 251 253 255 257 257 261 266 269 270 271 263 256
260 254 245 234 225 219 223 219 218 218 224 225 236 234 237 238 240 240 243 246 246 245 245 246 245 246 245 246 246 245 246 248 251 253 256 258 260 263 268 267 267 269 254 247
249 234 211 208 213 220 219 220 220 209 224 228 231 231 236 236 237 239 239 240 242 243 243 245 246 246 248 248 246 248 249 249 250 250 253 255 257 259 262 263 262 261 247 243
246 247 239 240 231 239 227 214 209 213 192 209 200 186 221 208 211 229 236 240 238 242 243 243 245 246 247 248 250 251 253 254 252 250 251 251 253 255 255 256 253 248 247 241
230 216 214 214 216 221 219 213 197 184 186 193 197 194 202 201 208 212 216 220 222 234 235 243 242 247 243 245 247 249 251 253 256 254 252 252 251 251 253 252 249 253 252 250
211 220 220 221 224 224 219 215 198 187 193 196 267 208 214 212 218 218 223 226 227 228 239 233 235 237 241 242 241 241 242 228 241 246 244 244 243 234 260 252 244 250 252 248
214 221 223 229 235 231 228 223 217 186 210 207 216 217 216 218 216 226 229 217 233 234 236 239 238 240 244 245 243 243 243 244 244 245 241 243 239 241 242 248 247 248 248 251
225 224 227 224 228 235 238 233 231 223 211 215 219 212 118 228 230 231 233 240 236 215 218 239 241 240 243 245 245 246 245 243 243 240 236 240 231 232 250 241 258 244 243 245
228 229 230 231 233 236 239 235 235 234 230 219 217 220 224 224 250 238 238 240 246 217 244 238 240 241 240 241 243 241 244 245 241 242 242 230 236 235 232 236 235 248 236 241
239 238 238 239 239 240 239 239 241 238 233 231 229 224 224 226 223 235 260 291 245 339 248 291 242 241 241 239 238 237 238 244 238 233 233 238 222 230 234 239 234 236 237 254
245 242 241 241 241 241 241 237 241 242 241 238 236 238 238 235 237 238 238 241 245 248 242 246 241 245 238 238 238 235 236 239 235 234 225 214 226 228 228 234 236 242 241 240
248 245 243 242 241 241 243 242 240 243 244 243 242 242 242 243 243 245 245 246 250 251 200 255 249 250 241 235 237 234 236 236 234 223 219 234 219 232 217 227 233 241 245 233
248 244 239 225 234 241 241 241 241 242 242 243 241 236 241 232 245 246 245 247 250 252 253 256 253 257 254 252 244 229 234 234 227 211 206 210 220 226 232 228 230 231 235 241
239 231 224 220 217 220 227 232 231 233 234 236 237 232 234 237 243 246 248 219 257 253 248 249 248 241 243 233 241 228 231 228 221 209 210 206 215 217 224 233 234 238 241 244
169 170 188 199 208 212 214 217 219 216 208 207 211 214 220 212 211 225 224 228 231 220 219 219 223 226 228 222 223 217 222 227 221 214 214 212 219 224 227 231 235 240 244 238
137 137 141 141 138 130 143 157 159 156 143 155 172 207 200 209 195 213 199 201 172 196 204 191 186 201 216 233 215 216 223 217 221 220 223 207 216 221 227 231 236 234 231 241
103 113 117 116 119 122 119 122 138 141 153 162 157 154 151 169 186 178 217 167 151 215 179 184 185 204 227 222 225 220 225 218 219 223 220 213 217 219 231 235 235 226 235 236
116 119 120 125 133 124 138 137 142 153 162 157 156 166 179 167 178 173 170 178 191 205 194 198 201 212 221 234 224 219 212 225 224 219 224 221 222 222 226 235 236 236 236 244
125 128 132 130 132 133 136 138 147 152 148 154 162 169 164 168 165 174 186 191 189 185 184 197 177 175 170 183 199 211 222 220 239 224 225 235 222 224 222 228 236 237 243 235
115 135 110 115 113 116 120 127 131 138 148 155 147 152 159 165 178 179 187 192 175 179 181 166 160 153 184 233 222 214 223 235 225 221 221 227 230 223 224 226 233 239 239 232
107 109 110 111 112 115 115 116 120 127 132 136 142 148 156 162 175 186 175 175 173 167 160 153 173 188 199 192 213 185 222 221 226 227 232 230 227 220 225 231 233 237 232 232
114 114 113 111 111 111 111 112 115 117 119 123 129 136 148 151 151 165 163 174 174 160 147 169 190 169 141 176 194 215 185 192 236 271 262 233 245 235 225 231 234 235 237 239
113 112 110 111 116 115 110 108 111 114 111 112 112 117 130 118 113 119 120 114 127 158 162 154 167 167 142 153 171 181 188 202 224 242 242 238 241 244 233 231 233 236 240 246
118 115 112 107 105 110 109 107 100 95 92 114 127 119 120 117 117 125 133 143 154 170 178 188 185 186 174 181 189 199 204 215 222 225 227 230 233 232 232 238 240 243 249 252
117 117 116 116 116 113 110 105 108 110 113 115 118 122 123 125 137 133 135 156 157 151 144 182 192 184 191 201 208 209 225 221 226 230 233 234 235 237 238 242 249 253 254 258